User: anonymous   Login
Location: *
(41.0833°N, 73.4167°W)
Time: 05:51:29
(UTC+00:00)
Language:

Cosmos 2228 - Orbit

View from above orbital plane
View from above orbital plane
View from above satellite
View from above satellite

Ground track
Ground track

The orbit data is extracted from the following two-line orbital elements,

1 22286U 92094A   19342.47166799  .00000145  00000-0  13050-4 0  9995
2 22286  82.5216 241.0399 0021341   3.0972 357.0373 14.88092204456962
Epoch (UTC): 08 December 2019 11:19:12
Eccentricity: 0.0021341
inclination: 82.5216°
perigee height: 589 km
apogee height: 619 km
right ascension of ascending node: 241.0399°
argument of perigee: 3.0972°
revolutions per day: 14.88092204
mean anomaly at epoch: 357.0373°
orbit number at epoch: 45696

The dashed part of the orbit path shows where the satellite is in the earth's shadow,  

DLR